カタログに戻る

STARLINK-35843

運用中通信SSO
NORAD 67606·PAYLOAD·🇺🇸 United States

打ち上げ Jan 29, 2026 から Vandenberg Space Force Base

Loading…

次のパス (今後24時間)

TLE

最新Source: CelesTrak SupGP

元期: Sep 14, 2026, 22:41 UTC

1 67606C 26018T   26257.94562500 -.00007807  00000+0 -24236-3 0  2575
2 67606  97.2856 321.4754 0001018  86.9451  94.2667 15.33439792    14

AllMySatでSTARLINK-35843をリアルタイム追跡

Download on the App Store